Weather History for North Adams, MA

Change the Weather History Date:

Wednesday, September 10, 2014

  Actual Average Record
Temperature  
Mean Temperature 60 °F -  
Max Temperature 73 °F 72 °F 88 °F (2002)
Min Temperature 46 °F 50 °F 42 °F (2005)
Degree Days  
Heating Degree Days 6    
Growing Degree Days 10 (Base 50)    
Moisture  
Dew Point 52 °F    
Average Humidity 74    
Maximum Humidity 97    
Minimum Humidity 53    
Precipitation  
Precipitation 0.00 in - - ()
Sea Level Pressure  
Sea Level Pressure 30.12 in    
Wind  
Wind Speed 5 mph (East)    
Max Wind Speed 12 mph    
Max Gust Speed -    
Visibility 10 miles    
Events      
Averages and records for this station are not official NWS values.
T = Trace of Precipitation, MM = Missing Value Source: NWS Daily Summary

Daily Weather History Graph

Daily Weather History Graph

Search for Another Location

Airport:

Trip Planner

Search our weather history database for the weather conditions in past years. The results will help you decide how hot, cold, wet, or windy it might be!

Date:

Astronomy

Sep. 10, 2014 Rise Set
Actual Time 6:27 AM EDT 7:11 PM EDT
Civil Twilight 5:58 AM EDT 7:39 PM EDT
Nautical Twilight 5:24 AM EDT 8:13 PM EDT
Astronomical Twilight 4:49 AM EDT 8:48 PM EDT
Moon 8:04 PM EDT (9/10) 8:14 AM EDT (9/10)
Length of Visible Light 13h 41m
Length of Day
12h 44m
Waning Gibbous, 96% of the Moon is Illuminated
Sep 10
Waning Gibbous
Sep 15
Last Quarter
Sep 24
New
Oct 1
First Quarter
Oct 8
Full

Hourly Weather History & Observations

Time (EDT) Temp. Dew Point Humidity Pressure Visibility Wind Dir Wind Speed Gust Speed Precip Events Conditions
12:52 AM 55.0 °F 48.0 °F 77% 30.19 in 10.0 mi East 5.8 mph - N/A   Clear
1:52 AM 53.1 °F 48.0 °F 83% 30.18 in 10.0 mi East 5.8 mph - N/A   Clear
2:52 AM 51.1 °F 48.0 °F 89% 30.18 in 10.0 mi East 3.5 mph - N/A   Clear
3:52 AM 50.0 °F 48.0 °F 93% 30.19 in 10.0 mi Calm Calm - N/A   Clear
4:52 AM 50.0 °F 46.9 °F 89% 30.19 in 10.0 mi Calm Calm - N/A   Clear
6:52 AM 46.9 °F 46.0 °F 97% 30.17 in 10.0 mi Calm Calm - N/A   Clear
7:52 AM 54.0 °F 50.0 °F 86% 30.17 in 10.0 mi East 4.6 mph - N/A   Clear
8:52 AM 57.9 °F 51.1 °F 78% 30.17 in 10.0 mi SSE 4.6 mph - N/A   Clear
9:52 AM 63.0 °F 52.0 °F 67% 30.17 in 10.0 mi Variable 3.5 mph - N/A   Clear
10:52 AM 66.9 °F 52.0 °F 59% 30.15 in 10.0 mi East 5.8 mph - N/A   Clear
11:52 AM 70.0 °F 54.0 °F 57% 30.12 in 10.0 mi NE 5.8 mph - N/A   Clear
1:52 PM 73.9 °F 55.9 °F 53% 30.09 in 10.0 mi East 11.5 mph - N/A   Clear
2:52 PM 72.0 °F 55.0 °F 55% 30.09 in 10.0 mi ENE 8.1 mph - N/A   Clear
3:52 PM 72.0 °F 57.0 °F 59% 30.07 in 10.0 mi Variable 5.8 mph - N/A   Clear
4:52 PM 71.1 °F 55.9 °F 59% 30.06 in 10.0 mi ENE 6.9 mph - N/A   Clear
5:52 PM 68.0 °F 55.9 °F 65% 30.06 in 10.0 mi East 8.1 mph - N/A   Clear
6:52 PM 64.9 °F 57.0 °F 75% 30.06 in 10.0 mi East 8.1 mph - N/A   Clear
7:52 PM 64.0 °F 55.9 °F 75% 30.06 in 10.0 mi East 8.1 mph - N/A   Clear
8:52 PM 63.0 °F 55.9 °F 78% 30.04 in 10.0 mi East 6.9 mph - N/A   Clear
9:52 PM 63.0 °F 55.9 °F 78% 30.04 in 10.0 mi ESE 8.1 mph - N/A   Clear
11:52 PM 62.1 °F 54.0 °F 75% 30.01 in 10.0 mi East 5.8 mph - N/A   Scattered Clouds